Location: Bishop�s Knoyle
(51.0728°N, 2.1714°W)
Time: 13:11:04
(UTC+00:00)

BEESAT 2 - Pass Details

Date: 30 November 2021
Orbit: 498 x 513 km, 64.9° (Epoch: 24 January)

Event Time Altitude Azimuth Distance (km) Brightness Sun altitude
Exits shadow 07:05:24 - 320° (NW) 2,027 ? -6.7°
Reaches altitude 10° 07:06:05 10° 320° (NW) 1,754 ? -6.6°
Maximum altitude 07:10:01 79° 48° (NE) 531 ? -6.1°
Drops below altitude 10° 07:13:54 10° 136° (SE) 1,738 ? -5.5°
Sets 07:16:04 0° 137° (SE) 2,619 ? -5.2°
